Tehachapi, CA

5:37 AM PDT on August 17, 2017 (GMT -0700)
Tehachapi Municipal

Weather History for KTSP - May, 2013

Change the Weather History Date:

Wednesday, May 15, 2013

  Actual Average Record
Temperature  
Mean Temperature 65 °F -  
Max Temperature 75 °F 73 °F 84 °F (2014)
Min Temperature 55 °F 44 °F 37 °F (2017)
Growing Degree Days 15 (Base 50)    
Moisture  
Dew Point 39 °F    
Average Humidity 39    
Maximum Humidity 63    
Minimum Humidity 22    
Precipitation  
Precipitation 0.00 in - - ()
Sea Level Pressure  
Sea Level Pressure 30.07 in    
Wind  
Wind Speed 14 mph (WNW)    
Max Wind Speed 26 mph    
Max Gust Speed 34 mph    
Visibility 10 miles    
Events      
Averages and records for this station are not official NWS values.
T = Trace of Precipitation, MM = Missing Value Source: NWS Daily Summary

Daily Weather History Graph

Daily Weather History Graph

Search for Another Location

Airport or City:

Trip Planner

Search our weather history database for the weather conditions in past years. The results will help you decide how hot, cold, wet, or windy it might be!

Date:

Astronomy

May. 15, 2013 Rise Set
Actual Time 5:49 AM PDT 7:51 PM PDT
Civil Twilight 5:21 AM PDT 8:19 PM PDT
Nautical Twilight 4:47 AM PDT 8:53 PM PDT
Astronomical Twilight 4:10 AM PDT 9:30 PM PDT
Moon 10:27 AM PDT (5/15) No Moon Set
Length of Visible Light 14h 57m
Length of Day
14h 01m
Waxing Crescent, 28% of the Moon is Illuminated
May 15
Waxing Crescent
May 17
First Quarter
May 24
Full
May 31
Last Quarter
Jun 8
New

Hourly Weather History & Observations

Time (PDT) Temp. Dew Point Humidity Pressure Visibility Wind Dir Wind Speed Gust Speed Precip Events Conditions
12:15 AM 59.0 °F 39.2 °F 48% 30.09 in 10.0 mi West 11.5 mph - N/A   Clear
12:35 AM 59.0 °F 41.0 °F 51% 30.08 in 10.0 mi West 13.8 mph - N/A   Clear
12:55 AM 59.0 °F 41.0 °F 51% 30.08 in 10.0 mi West 16.1 mph - N/A   Clear
1:15 AM 59.0 °F 41.0 °F 51% 30.09 in 10.0 mi WNW 10.4 mph - N/A   Clear
1:35 AM 59.0 °F 41.0 °F 51% 30.08 in 10.0 mi WNW 6.9 mph - N/A   Clear
1:55 AM 57.2 °F 41.0 °F 55% 30.08 in 10.0 mi WNW 9.2 mph - N/A   Clear
2:15 AM 57.2 °F 41.0 °F 55% 30.08 in 10.0 mi West 9.2 mph - N/A   Clear
2:35 AM 59.0 °F 41.0 °F 51% 30.07 in 10.0 mi WNW 11.5 mph - N/A   Clear
2:55 AM 59.0 °F 41.0 °F 51% 30.07 in 10.0 mi WNW 10.4 mph - N/A   Clear
3:15 AM 59.0 °F 41.0 °F 51% 30.07 in 10.0 mi WNW 11.5 mph - N/A   Clear
3:35 AM 57.2 °F 42.8 °F 59% 30.07 in 10.0 mi West 12.7 mph - N/A   Clear
3:55 AM 57.2 °F 42.8 °F 59% 30.07 in 10.0 mi WNW 11.5 mph - N/A   Clear
4:15 AM 57.2 °F 42.8 °F 59% 30.07 in 10.0 mi WNW 13.8 mph - N/A   Clear
4:35 AM 57.2 °F 42.8 °F 59% 30.07 in 10.0 mi WNW 11.5 mph - N/A   Clear
4:55 AM 57.2 °F 42.8 °F 59% 30.07 in 10.0 mi NW 11.5 mph - N/A   Clear
5:15 AM 55.4 °F 42.8 °F 63% 30.08 in 10.0 mi NW 9.2 mph - N/A   Partly Cloudy
5:35 AM 55.4 °F 42.8 °F 63% 30.08 in 10.0 mi WNW 8.1 mph - N/A   Clear
5:55 AM 57.2 °F 44.6 °F 63% 30.08 in 10.0 mi WNW 10.4 mph - N/A   Clear
6:15 AM 57.2 °F 44.6 °F 63% 30.09 in 10.0 mi WNW 9.2 mph - N/A   Clear
6:35 AM 59.0 °F 44.6 °F 59% 30.09 in 10.0 mi WNW 10.4 mph - N/A   Clear
6:55 AM 60.8 °F 44.6 °F 55% 30.10 in 10.0 mi WNW 9.2 mph - N/A   Clear
7:15 AM 62.6 °F 44.6 °F 52% 30.10 in 10.0 mi WNW 9.2 mph - N/A   Clear
7:35 AM 62.6 °F 44.6 °F 52% 30.10 in 10.0 mi WNW 8.1 mph - N/A   Clear
7:55 AM 64.4 °F 44.6 °F 49% 30.10 in 10.0 mi NW 5.8 mph - N/A   Clear
8:15 AM 64.4 °F 44.6 °F 49% 30.10 in 10.0 mi NW 5.8 mph - N/A   Clear
8:35 AM 66.2 °F 44.6 °F 46% 30.11 in 10.0 mi NNW 9.2 mph - N/A   Clear
8:55 AM 66.2 °F 46.4 °F 49% 30.11 in 10.0 mi WNW 9.2 mph 16.1 mph N/A   Clear
9:15 AM 68.0 °F 46.4 °F 46% 30.11 in 10.0 mi NW 12.7 mph 18.4 mph N/A   Clear
9:35 AM 68.0 °F 46.4 °F 46% 30.11 in 10.0 mi NW 13.8 mph 19.6 mph N/A   Clear
9:55 AM 68.0 °F 46.4 °F 46% 30.11 in 10.0 mi NW 15.0 mph 20.7 mph N/A   Clear
10:15 AM 69.8 °F 44.6 °F 40% 30.10 in 10.0 mi WNW 15.0 mph 23.0 mph N/A   Clear
10:35 AM 69.8 °F 44.6 °F 40% 30.10 in 10.0 mi NW 15.0 mph 21.9 mph N/A   Clear
10:55 AM 71.6 °F 44.6 °F 38% 30.10 in 10.0 mi NW 16.1 mph 23.0 mph N/A   Clear
11:15 AM 71.6 °F 44.6 °F 38% 30.10 in 10.0 mi NW 18.4 mph 24.2 mph N/A   Clear
11:35 AM 73.4 °F 44.6 °F 36% 30.10 in 10.0 mi NW 18.4 mph 25.3 mph N/A   Clear
11:55 AM 73.4 °F 41.0 °F 31% 30.09 in 10.0 mi NW 24.2 mph 28.8 mph N/A   Clear
12:15 PM 73.4 °F 41.0 °F 31% 30.09 in 10.0 mi NW 25.3 mph 31.1 mph N/A   Clear
12:35 PM 73.4 °F 41.0 °F 31% 30.08 in 10.0 mi NW 24.2 mph 31.1 mph N/A   Clear
12:55 PM 73.4 °F 41.0 °F 31% 30.08 in 10.0 mi NW 21.9 mph 31.1 mph N/A   Clear
1:15 PM 75.2 °F 39.2 °F 27% 30.08 in 10.0 mi NW 21.9 mph 27.6 mph N/A   Clear
1:35 PM 75.2 °F 39.2 °F 27% 30.07 in 10.0 mi NW 23.0 mph 31.1 mph N/A   Clear
1:55 PM 75.2 °F 39.2 °F 27% 30.07 in 10.0 mi WNW 21.9 mph 33.4 mph N/A   Clear
2:15 PM 75.2 °F 39.2 °F 27% 30.07 in 10.0 mi NW 24.2 mph 33.4 mph N/A   Clear
2:35 PM 75.2 °F 39.2 °F 27% 30.06 in 10.0 mi WNW 20.7 mph 31.1 mph N/A   Clear
2:55 PM 75.2 °F 39.2 °F 27% 30.07 in 10.0 mi NW 24.2 mph 32.2 mph N/A   Clear
3:15 PM 75.2 °F 39.2 °F 27% 30.06 in 10.0 mi NW 26.5 mph 34.5 mph N/A   Clear
3:35 PM 75.2 °F 39.2 °F 27% 30.06 in 10.0 mi NW 24.2 mph 34.5 mph N/A   Clear
3:55 PM 73.4 °F 39.2 °F 29% 30.06 in 10.0 mi NW 25.3 mph 32.2 mph N/A   Clear
4:15 PM 75.2 °F 37.4 °F 25% 30.05 in 10.0 mi NW 25.3 mph 32.2 mph N/A   Clear
4:35 PM 73.4 °F 37.4 °F 27% 30.04 in 10.0 mi NW 24.2 mph 33.4 mph N/A   Clear
4:55 PM 75.2 °F 37.4 °F 25% 30.04 in 10.0 mi NW 25.3 mph 33.4 mph N/A   Clear
5:15 PM 73.4 °F 35.6 °F 25% 30.04 in 10.0 mi NW 25.3 mph 33.4 mph N/A   Clear
5:35 PM 73.4 °F 35.6 °F 25% 30.04 in 10.0 mi NW 24.2 mph 32.2 mph N/A   Clear
5:55 PM 73.4 °F 33.8 °F 23% 30.03 in 10.0 mi NW 26.5 mph 33.4 mph N/A   Clear
6:15 PM 73.4 °F 32.0 °F 22% 30.03 in 10.0 mi WNW 20.7 mph 28.8 mph N/A   Clear
6:35 PM 71.6 °F 32.0 °F 23% 30.03 in 10.0 mi NW 19.6 mph 27.6 mph N/A   Clear
6:55 PM 71.6 °F 32.0 °F 23% 30.02 in 10.0 mi WNW 18.4 mph 28.8 mph N/A   Clear
7:15 PM 69.8 °F 32.0 °F 25% 30.02 in 10.0 mi WNW 19.6 mph 23.0 mph N/A   Clear
7:35 PM 68.0 °F 32.0 °F 26% 30.03 in 10.0 mi WNW 16.1 mph - N/A   Clear
7:55 PM 68.0 °F 32.0 °F 26% 30.03 in 10.0 mi WNW 16.1 mph - N/A   Clear
8:15 PM 66.2 °F 32.0 °F 28% 30.03 in 10.0 mi WNW 17.3 mph 21.9 mph N/A   Clear
8:35 PM 66.2 °F 32.0 °F 28% 30.04 in 10.0 mi WNW 19.6 mph 25.3 mph N/A   Clear
8:55 PM 66.2 °F 30.2 °F 26% 30.04 in 10.0 mi WNW 16.1 mph 23.0 mph N/A   Clear
9:15 PM 66.2 °F 30.2 °F 26% 30.04 in 10.0 mi NW 17.3 mph 21.9 mph N/A   Clear
9:35 PM 66.2 °F 30.2 °F 26% 30.05 in 10.0 mi NW 15.0 mph 20.7 mph N/A   Clear
9:55 PM 64.4 °F 30.2 °F 28% 30.05 in 10.0 mi WNW 17.3 mph 21.9 mph N/A   Clear
10:15 PM 64.4 °F 30.2 °F 28% 30.05 in 10.0 mi WNW 15.0 mph - N/A   Clear
10:35 PM 64.4 °F 30.2 °F 28% 30.05 in 10.0 mi WNW 13.8 mph - N/A   Clear
10:55 PM 62.6 °F 33.8 °F 34% 30.05 in 10.0 mi West 11.5 mph - N/A   Clear
11:15 PM 60.8 °F 33.8 °F 36% 30.05 in 10.0 mi West 18.4 mph - N/A   Clear
11:35 PM 59.0 °F 35.6 °F 42% 30.05 in 10.0 mi West 16.1 mph 20.7 mph N/A   Clear
11:55 PM 59.0 °F 37.4 °F 45% 30.05 in 10.0 mi West 20.7 mph 25.3 mph N/A   Clear